Time,TemperatureF,DewpointF,PressureIn,WindDirection,WindDirectionDegrees,WindSpeedMPH,WindSpeedGustMPH,Humidity,HourlyPrecipIn,Conditions,Clouds,dailyrainin,SoftwareType,DateUTC
2013-07-13 00:01:00,65.0,62.0,30.15,East,81,0.0,0.0,89,0.00,,,0.00,,2013-07-13 04:01:00,
2013-07-13 00:12:00,65.0,62.0,30.15,East,80,0.0,0.0,90,0.00,,,0.00,,2013-07-13 04:12:00,
2013-07-13 00:32:00,65.0,62.0,30.16,East,80,0.0,0.0,90,0.00,,,0.00,,2013-07-13 04:32:00,
2013-07-13 01:01:00,64.0,62.0,30.16,East,81,0.0,0.0,92,0.00,,,0.00,,2013-07-13 05:01:00,
2013-07-13 01:22:00,63.0,61.0,30.16,East,81,0.0,0.0,92,0.00,,,0.00,,2013-07-13 05:22:00,
2013-07-13 01:32:00,63.0,61.0,30.16,East,80,0.0,0.0,93,0.00,,,0.00,,2013-07-13 05:32:00,
2013-07-13 01:42:00,63.0,61.0,30.15,East,81,0.0,0.0,93,0.00,,,0.00,,2013-07-13 05:42:00,
2013-07-13 01:52:00,63.0,61.0,30.15,East,81,0.0,0.0,93,0.00,,,0.00,,2013-07-13 05:52:00,
2013-07-13 02:02:00,62.0,60.0,30.15,East,81,0.0,0.0,94,0.00,,,0.00,,2013-07-13 06:02:00,
2013-07-13 02:11:00,62.0,61.0,30.15,East,81,0.0,0.0,95,0.00,,,0.00,,2013-07-13 06:11:00,
2013-07-13 02:32:00,62.0,61.0,30.16,East,80,0.0,0.0,95,0.00,,,0.00,,2013-07-13 06:32:00,
2013-07-13 02:43:00,62.0,61.0,30.16,East,80,0.0,0.0,96,0.00,,,0.00,,2013-07-13 06:43:00,
2013-07-13 02:52:00,62.0,61.0,30.16,East,80,0.0,0.0,96,0.00,,,0.00,,2013-07-13 06:52:00,
2013-07-13 03:02:00,62.0,61.0,30.16,East,81,0.0,0.0,96,0.00,,,0.00,,2013-07-13 07:02:00,
2013-07-13 03:11:00,61.0,60.0,30.16,East,81,0.0,0.0,96,0.00,,,0.00,,2013-07-13 07:11:00,
2013-07-13 03:22:00,61.0,60.0,30.16,East,81,0.0,0.0,96,0.00,,,0.00,,2013-07-13 07:22:00,
2013-07-13 03:33:00,61.0,60.0,30.16,East,81,0.0,0.0,96,0.00,,,0.00,,2013-07-13 07:33:00,
2013-07-13 03:44:00,61.0,60.0,30.16,East,80,0.0,0.0,96,0.00,,,0.00,,2013-07-13 07:44:00,
2013-07-13 03:53:00,60.0,59.0,30.16,East,81,0.0,0.0,96,0.00,,,0.00,,2013-07-13 07:53:00,
2013-07-13 04:02:00,60.0,59.0,30.16,East,81,0.0,0.0,96,0.00,,,0.00,,2013-07-13 08:02:00,
2013-07-13 04:12:00,60.0,59.0,30.16,East,81,0.0,0.0,97,0.00,,,0.00,,2013-07-13 08:12:00,
2013-07-13 04:22:00,60.0,59.0,30.16,East,81,0.0,0.0,97,0.00,,,0.00,,2013-07-13 08:22:00,
2013-07-13 04:33:00,60.0,59.0,30.16,East,80,0.0,0.0,97,0.00,,,0.00,,2013-07-13 08:33:00,
2013-07-13 04:43:00,59.0,58.0,30.16,East,81,0.0,0.0,97,0.00,,,0.00,,2013-07-13 08:43:00,
2013-07-13 04:52:00,59.0,58.0,30.17,East,80,0.0,0.0,97,0.00,,,0.00,,2013-07-13 08:52:00,
2013-07-13 05:02:00,59.0,58.0,30.17,East,80,0.0,0.0,97,0.00,,,0.00,,2013-07-13 09:02:00,
2013-07-13 05:11:00,59.0,58.0,30.17,East,80,0.0,0.0,97,0.00,,,0.00,,2013-07-13 09:11:00,
2013-07-13 05:22:00,59.0,58.0,30.17,East,80,0.0,0.0,97,0.00,,,0.00,,2013-07-13 09:22:00,
2013-07-13 05:33:00,59.0,58.0,30.17,East,80,0.0,0.0,97,0.00,,,0.00,,2013-07-13 09:33:00,
2013-07-13 05:43:00,58.0,57.0,30.18,East,80,0.0,0.0,98,0.00,,,0.00,,2013-07-13 09:43:00,
2013-07-13 05:53:00,58.0,57.0,30.18,East,80,0.0,0.0,98,0.00,,,0.00,,2013-07-13 09:53:00,
2013-07-13 06:01:00,58.0,57.0,30.18,East,81,0.0,0.0,98,0.00,,,0.00,,2013-07-13 10:01:00,
2013-07-13 06:11:00,58.0,57.0,30.19,East,81,0.0,0.0,98,0.00,,,0.00,,2013-07-13 10:11:00,
2013-07-13 06:32:00,58.0,57.0,30.19,East,81,0.0,0.0,98,0.00,,,0.00,,2013-07-13 10:32:00,
2013-07-13 06:43:00,58.0,57.0,30.19,East,81,0.0,0.0,98,0.00,,,0.00,,2013-07-13 10:43:00,
2013-07-13 06:52:00,58.0,57.0,30.19,East,81,0.0,0.0,98,0.00,,,0.00,,2013-07-13 10:52:00,
2013-07-13 07:02:00,57.0,56.0,30.20,East,80,0.0,0.0,98,0.00,,,0.00,,2013-07-13 11:02:00,
2013-07-13 07:11:00,58.0,57.0,30.20,East,81,0.0,0.0,98,0.00,,,0.00,,2013-07-13 11:11:00,
2013-07-13 07:22:00,58.0,57.0,30.20,East,81,0.0,0.0,98,0.00,,,0.00,,2013-07-13 11:22:00,
2013-07-13 07:32:00,58.0,58.0,30.19,East,98,0.0,1.0,99,0.00,,,0.00,,2013-07-13 11:32:00,
2013-07-13 07:43:00,59.0,59.0,30.19,East,89,0.0,1.0,99,0.00,,,0.00,,2013-07-13 11:43:00,
2013-07-13 07:52:00,59.0,59.0,30.19,East,89,0.0,1.0,99,0.00,,,0.00,,2013-07-13 11:52:00,
2013-07-13 08:02:00,61.0,61.0,30.19,East,94,0.0,1.0,100,0.00,,,0.00,,2013-07-13 12:02:00,
2013-07-13 08:12:00,62.0,62.0,30.19,East,94,0.0,1.0,99,0.00,,,0.00,,2013-07-13 12:12:00,
2013-07-13 08:32:00,64.0,64.0,30.20,East,94,0.0,0.0,99,0.00,,,0.00,,2013-07-13 12:32:00,
2013-07-13 08:43:00,65.0,65.0,30.19,East,89,0.0,1.0,99,0.00,,,0.00,,2013-07-13 12:43:00,
2013-07-13 08:52:00,65.0,65.0,30.19,East,89,0.0,1.0,99,0.00,,,0.00,,2013-07-13 12:52:00,
2013-07-13 09:01:00,67.0,66.0,30.20,East,86,0.0,2.0,95,0.00,,,0.00,,2013-07-13 13:01:00,
2013-07-13 09:22:00,69.0,65.0,30.20,East,91,2.0,3.0,88,0.00,,,0.00,,2013-07-13 13:22:00,
2013-07-13 09:32:00,70.0,64.0,30.20,ESE,106,1.0,3.0,82,0.00,,,0.00,,2013-07-13 13:32:00,
2013-07-13 09:43:00,71.0,64.0,30.21,ESE,102,1.0,3.0,79,0.00,,,0.00,,2013-07-13 13:43:00,
2013-07-13 10:02:00,72.0,64.0,30.20,East,90,0.0,2.0,77,0.00,,,0.00,,2013-07-13 14:02:00,
2013-07-13 10:11:00,73.0,64.0,30.20,East,84,0.0,4.0,74,0.00,,,0.00,,2013-07-13 14:11:00,
2013-07-13 10:32:00,75.0,63.0,30.20,ESE,105,0.0,2.0,67,0.00,,,0.00,,2013-07-13 14:32:00,
2013-07-13 10:43:00,76.0,61.0,30.21,ENE,72,0.0,4.0,60,0.00,,,0.00,,2013-07-13 14:43:00,
2013-07-13 10:53:00,77.0,61.0,30.21,ESE,107,1.0,4.0,57,0.00,,,0.00,,2013-07-13 14:53:00,
2013-07-13 11:02:00,77.0,61.0,30.21,ESE,107,1.0,4.0,57,0.00,,,0.00,,2013-07-13 15:02:00,
2013-07-13 11:12:00,76.0,59.0,30.20,East,86,2.0,5.0,56,0.00,,,0.00,,2013-07-13 15:12:00,
2013-07-13 11:22:00,77.0,60.0,30.20,East,89,0.0,4.0,56,0.00,,,0.00,,2013-07-13 15:22:00,
2013-07-13 11:33:00,77.0,60.0,30.20,East,89,0.0,4.0,56,0.00,,,0.00,,2013-07-13 15:33:00,
2013-07-13 11:43:00,77.0,60.0,30.20,East,100,0.0,7.0,56,0.00,,,0.00,,2013-07-13 15:43:00,
2013-07-13 11:53:00,78.0,59.0,30.20,East,89,0.0,5.0,52,0.00,,,0.00,,2013-07-13 15:53:00,
2013-07-13 12:02:00,78.0,59.0,30.20,East,89,0.0,5.0,52,0.00,,,0.00,,2013-07-13 16:02:00,
2013-07-13 12:11:00,79.0,58.0,30.21,East,88,1.0,4.0,49,0.00,,,0.00,,2013-07-13 16:11:00,
2013-07-13 12:22:00,79.0,59.0,30.20,West,277,0.0,6.0,51,0.00,,,0.00,,2013-07-13 16:22:00,
2013-07-13 12:33:00,79.0,59.0,30.20,West,277,0.0,6.0,51,0.00,,,0.00,,2013-07-13 16:33:00,
2013-07-13 12:43:00,81.0,60.0,30.20,East,93,0.0,4.0,49,0.00,,,0.00,,2013-07-13 16:43:00,
2013-07-13 12:53:00,80.0,58.0,30.21,East,82,1.0,4.0,47,0.00,,,0.00,,2013-07-13 16:53:00,
2013-07-13 13:01:00,80.0,58.0,30.21,East,82,1.0,4.0,47,0.00,,,0.00,,2013-07-13 17:01:00,
2013-07-13 13:12:00,80.0,59.0,30.20,East,82,0.0,4.0,48,0.00,,,0.00,,2013-07-13 17:12:00,
2013-07-13 13:22:00,81.0,57.0,30.20,ESE,115,0.0,3.0,44,0.00,,,0.00,,2013-07-13 17:22:00,
2013-07-13 13:33:00,81.0,57.0,30.20,ESE,115,0.0,3.0,44,0.00,,,0.00,,2013-07-13 17:33:00,
2013-07-13 13:43:00,83.0,58.0,30.20,East,91,1.0,3.0,43,0.00,,,0.00,,2013-07-13 17:43:00,
2013-07-13 13:52:00,82.0,59.0,30.21,ESE,119,0.0,2.0,45,0.00,,,0.00,,2013-07-13 17:52:00,
2013-07-13 14:01:00,82.0,59.0,30.21,ESE,119,0.0,2.0,45,0.00,,,0.00,,2013-07-13 18:01:00,
2013-07-13 14:11:00,82.0,59.0,30.20,ENE,76,0.0,3.0,45,0.00,,,0.00,,2013-07-13 18:11:00,
2013-07-13 14:22:00,82.0,58.0,30.20,West,278,0.0,3.0,44,0.00,,,0.00,,2013-07-13 18:22:00,
2013-07-13 14:32:00,82.0,58.0,30.20,West,278,0.0,3.0,44,0.00,,,0.00,,2013-07-13 18:32:00,
2013-07-13 14:44:00,83.0,59.0,30.20,ENE,78,1.0,4.0,44,0.00,,,0.00,,2013-07-13 18:44:00,
2013-07-13 14:53:00,83.0,58.0,30.20,East,82,2.0,5.0,43,0.00,,,0.00,,2013-07-13 18:53:00,
2013-07-13 15:02:00,83.0,58.0,30.20,East,82,2.0,5.0,43,0.00,,,0.00,,2013-07-13 19:02:00,
2013-07-13 15:11:00,83.0,59.0,30.19,East,87,1.0,2.0,44,0.00,,,0.00,,2013-07-13 19:11:00,
2013-07-13 15:22:00,83.0,61.0,30.19,WNW,300,0.0,5.0,47,0.00,,,0.00,,2013-07-13 19:22:00,
2013-07-13 15:32:00,83.0,61.0,30.19,WNW,300,0.0,5.0,47,0.00,,,0.00,,2013-07-13 19:32:00,
2013-07-13 15:44:00,85.0,59.0,30.19,East,98,0.0,2.0,42,0.00,,,0.00,,2013-07-13 19:44:00,
2013-07-13 15:52:00,83.0,59.0,30.19,East,80,0.0,6.0,45,0.00,,,0.00,,2013-07-13 19:52:00,
2013-07-13 16:01:00,83.0,59.0,30.19,East,80,0.0,6.0,45,0.00,,,0.00,,2013-07-13 20:01:00,
2013-07-13 16:11:00,83.0,59.0,30.19,East,79,0.0,3.0,45,0.00,,,0.00,,2013-07-13 20:11:00,
2013-07-13 16:22:00,83.0,60.0,30.19,East,79,1.0,4.0,46,0.00,,,0.00,,2013-07-13 20:22:00,
2013-07-13 16:33:00,83.0,60.0,30.19,East,79,1.0,4.0,46,0.00,,,0.00,,2013-07-13 20:33:00,
2013-07-13 16:43:00,84.0,61.0,30.19,East,89,0.0,4.0,46,0.00,,,0.00,,2013-07-13 20:43:00,
2013-07-13 16:52:00,84.0,60.0,30.18,East,86,0.0,2.0,44,0.00,,,0.00,,2013-07-13 20:52:00,
2013-07-13 17:02:00,84.0,60.0,30.18,East,86,0.0,2.0,44,0.00,,,0.00,,2013-07-13 21:02:00,
2013-07-13 17:12:00,84.0,60.0,30.18,West,269,0.0,2.0,45,0.00,,,0.00,,2013-07-13 21:12:00,
2013-07-13 17:22:00,83.0,62.0,30.18,East,80,0.0,4.0,49,0.00,,,0.00,,2013-07-13 21:22:00,
2013-07-13 17:32:00,83.0,62.0,30.18,East,80,0.0,4.0,49,0.00,,,0.00,,2013-07-13 21:32:00,
2013-07-13 17:43:00,82.0,60.0,30.18,East,96,0.0,4.0,48,0.00,,,0.00,,2013-07-13 21:43:00,
2013-07-13 17:53:00,82.0,61.0,30.18,ESE,115,1.0,3.0,50,0.00,,,0.00,,2013-07-13 21:53:00,
2013-07-13 18:01:00,82.0,61.0,30.18,ESE,115,1.0,3.0,50,0.00,,,0.00,,2013-07-13 22:01:00,
2013-07-13 18:12:00,82.0,63.0,30.19,East,89,0.0,3.0,52,0.00,,,0.00,,2013-07-13 22:12:00,
2013-07-13 18:22:00,82.0,62.0,30.18,East,82,0.0,3.0,51,0.00,,,0.00,,2013-07-13 22:22:00,
2013-07-13 18:32:00,82.0,62.0,30.18,East,82,0.0,3.0,51,0.00,,,0.00,,2013-07-13 22:32:00,
2013-07-13 18:43:00,81.0,62.0,30.18,East,91,0.0,2.0,52,0.00,,,0.00,,2013-07-13 22:43:00,
2013-07-13 18:53:00,81.0,63.0,30.18,East,84,0.0,2.0,55,0.00,,,0.00,,2013-07-13 22:53:00,
2013-07-13 19:02:00,81.0,63.0,30.18,East,84,0.0,2.0,55,0.00,,,0.00,,2013-07-13 23:02:00,
2013-07-13 19:11:00,82.0,65.0,30.17,WNW,283,0.0,2.0,57,0.00,,,0.00,,2013-07-13 23:11:00,
2013-07-13 19:22:00,81.0,65.0,30.18,East,93,0.0,2.0,58,0.00,,,0.00,,2013-07-13 23:22:00,
2013-07-13 19:32:00,81.0,65.0,30.18,East,93,0.0,2.0,58,0.00,,,0.00,,2013-07-13 23:32:00,
2013-07-13 19:42:00,80.0,65.0,30.18,East,94,0.0,2.0,60,0.00,,,0.00,,2013-07-13 23:42:00,
2013-07-13 19:53:00,80.0,66.0,30.18,NNE,17,0.0,1.0,62,0.00,,,0.00,,2013-07-13 23:53:00,
2013-07-13 20:01:00,80.0,66.0,30.18,NNE,17,0.0,1.0,62,0.00,,,0.00,,2013-07-14 00:01:00,
2013-07-13 20:12:00,79.0,66.0,30.19,ENE,77,0.0,1.0,64,0.00,,,0.00,,2013-07-14 00:12:00,
2013-07-13 20:21:00,78.0,66.0,30.19,ENE,62,0.0,1.0,66,0.00,,,0.00,,2013-07-14 00:21:00,
2013-07-13 20:33:00,78.0,66.0,30.19,ENE,62,0.0,1.0,66,0.00,,,0.00,,2013-07-14 00:33:00,
2013-07-13 20:42:00,77.0,66.0,30.19,ENE,63,0.0,0.0,68,0.00,,,0.00,,2013-07-14 00:42:00,
2013-07-13 20:53:00,76.0,65.0,30.19,ENE,62,0.0,0.0,70,0.00,,,0.00,,2013-07-14 00:53:00,
2013-07-13 21:02:00,76.0,65.0,30.19,ENE,62,0.0,0.0,70,0.00,,,0.00,,2013-07-14 01:02:00,
2013-07-13 21:11:00,75.0,66.0,30.19,ENE,63,0.0,0.0,73,0.00,,,0.00,,2013-07-14 01:11:00,
2013-07-13 21:22:00,74.0,66.0,30.19,ENE,63,0.0,0.0,75,0.00,,,0.00,,2013-07-14 01:22:00,
2013-07-13 21:32:00,74.0,66.0,30.19,ENE,63,0.0,0.0,75,0.00,,,0.00,,2013-07-14 01:32:00,
2013-07-13 21:43:00,73.0,66.0,30.20,ENE,62,0.0,0.0,79,0.00,,,0.00,,2013-07-14 01:43:00,
2013-07-13 21:52:00,72.0,66.0,30.20,ENE,62,0.0,0.0,81,0.00,,,0.00,,2013-07-14 01:52:00,
2013-07-13 22:02:00,72.0,66.0,30.20,ENE,62,0.0,0.0,81,0.00,,,0.00,,2013-07-14 02:02:00,
2013-07-13 22:11:00,71.0,66.0,30.21,ENE,62,0.0,0.0,83,0.00,,,0.00,,2013-07-14 02:11:00,
2013-07-13 22:22:00,70.0,65.0,30.21,ENE,62,0.0,1.0,85,0.00,,,0.00,,2013-07-14 02:22:00,
2013-07-13 22:32:00,70.0,65.0,30.21,ENE,62,0.0,1.0,85,0.00,,,0.00,,2013-07-14 02:32:00,
2013-07-13 22:43:00,70.0,66.0,30.22,ENE,63,0.0,0.0,86,0.00,,,0.00,,2013-07-14 02:43:00,
2013-07-13 22:53:00,69.0,65.0,30.22,ENE,62,0.0,0.0,87,0.00,,,0.00,,2013-07-14 02:53:00,
2013-07-13 23:01:00,69.0,65.0,30.22,ENE,62,0.0,0.0,87,0.00,,,0.00,,2013-07-14 03:01:00,
2013-07-13 23:11:00,69.0,66.0,30.22,ENE,63,0.0,0.0,89,0.00,,,0.00,,2013-07-14 03:11:00,
2013-07-13 23:22:00,68.0,65.0,30.23,ENE,62,0.0,0.0,90,0.00,,,0.00,,2013-07-14 03:22:00,
2013-07-13 23:32:00,68.0,65.0,30.23,ENE,62,0.0,0.0,90,0.00,,,0.00,,2013-07-14 03:32:00,
2013-07-13 23:43:00,68.0,65.0,30.23,ENE,62,0.0,0.0,91,0.00,,,0.00,,2013-07-14 03:43:00,
2013-07-13 23:53:00,67.0,64.0,30.23,ENE,62,0.0,1.0,91,0.00,,,0.00,,2013-07-14 03:53:00,